[Iaude] MPEC M39: 2024 LK6 [a=2.16,e=0.43,i=4.3,H=21.8]

mpec at cfa.harvard.edu mpec at cfa.harvard.edu
Fri Jun 21 11:57:53 EDT 2024


M.P.E.C. 2024-M39                                 Issued 2024 June 21, 15:56 UT

     The Minor Planet Electronic Circulars contain information on unusual
         minor planets, routine data on comets and natural satellites,
         and occasional editorial announcements.  They are published
    on behalf of Division F of the International Astronomical Union by the
          Minor Planet Center, Smithsonian Astrophysical Observatory,
                          Cambridge, MA 02138, U.S.A.
			  
             Prepared using the Tamkin Foundation Computer Network

                              MPC at CFA.HARVARD.EDU
            URL https://www.minorplanetcenter.net/    ISSN 1523-6714

                                    2024 LK6                                    


Observations:
     K24L06K  C2024 06 02.44042216 35 44.145-23 15 25.01         21.76GVEM039F51
     K24L06K  C2024 06 02.44860116 35 43.564-23 15 20.90         21.09GVEM039F51
     K24L06K  C2024 06 02.45638616 35 42.935-23 15 17.60         22.04GVEM039F51
     K24L06K  C2024 06 02.46420016 35 42.335-23 15 13.22         21.49GVEM039F51
     K24L06K* C2024 06 06.40007216 31 02.126-22 42 44.64         21.90wXEM039F52
     K24L06K  C2024 06 06.40804616 31 01.481-22 42 40.46         22.11wXEM039F52
     K24L06K  C2024 06 06.41600716 31 00.857-22 42 36.34         21.96wXEM039F52
     K24L06K |C2024 06 07.19100016 30 04.510-22 35 40.80         21.9 GVEM039807
     K24L06K |C2024 06 07.20200016 30 03.640-22 35 35.90         21.7 GVEM039807
     K24L06K |C2024 06 07.21300016 30 02.790-22 35 30.50         21.7 GVEM039807
     K24L06K  C2024 06 11.41739916 24 57.034-21 57 42.89         22.38GVEM039F52
     K24L06K  C2024 06 11.42478216 24 56.449-21 57 39.13         22.75GVEM039F52
     K24L06K  C2024 06 11.43947116 24 55.297-21 57 30.08         21.69GVEM039F52

Observer details:
807 Cerro Tololo Observatory, La Serena.  Observers T. Linder, R. Holmes.
    0.61-m f/6.8 Ritchey-Chretien + CCD.
F51 Pan-STARRS 1, Haleakala.  Observers J. Herman, T. Lowe, P. Minguez, A.
    Schultz, I. Smith.  Measurers K. Chambers, T. de Boer, J. Fairlamb, H.
    Gao, M. Huber, C.-C. Lin, E. Magnier, Y. Ramanjooloo, R. Wainscoat, R.
    Weryk.  1.8-m Ritchey-Chretien + CCD.
F52 Pan-STARRS 2, Haleakala.  Observers J. Herman, T. Lowe, P. Minguez, A.
    Schultz, I. Smith.  Measurers K. Chambers, T. de Boer, J. Fairlamb, H.
    Gao, M. Huber, C.-C. Lin, E. Magnier, Y. Ramanjooloo, R. Wainscoat, R.
    Weryk.  1.8-m Ritchey-Chretien + CCD.

Orbital elements:
2024 LK6                                                 Earth MOID = 0.2396 AU
Epoch 2024 Mar. 31.0 TT = JDT 2460400.5                 MPC                     
M 305.70092              (2000.0)            P               Q                  
n   0.31009136     Peri.   72.31567     +0.86251060     +0.50066775             
a   2.1617706      Node   257.58438     -0.48812814     +0.78483328             
e   0.4276501      Incl.    4.31817     -0.13344058     +0.36519656             
P   3.18           H   21.87          G   0.15           U   8                  
Residuals in seconds of arc
240602 F51  0.1-  0.1-    240606 F52  0.0   0.0     240611 F52  0.0   0.0
240602 F51  0.4+  0.1+    240606 F52  0.0   0.0     240611 F52  0.0   0.4-
240602 F51  0.1-  0.3-    240607 807  0.2-  0.5+    240611 F52  0.0   0.4+
240602 F51  0.2-  0.3+    240607 807  0.3-  0.5-
240606 F52  0.2+  0.1-    240607 807  0.1-  0.9-

Ephemeris:
2024 LK6                 a,e,i = 2.16, 0.43, 4                   q = 1.2373
Date    TT    R. A. (2000) Decl.     Delta      r    Elong.  Phase     V
2024 05 22    16 47 27.8 -24 31 57   0.6865  1.6888   167.4     7.5    22.7
...
2024 06 06    16 31 31.0 -22 46 00   0.5942  1.6070   174.2     3.7    22.1
...
2024 06 14    16 21 52.4 -21 33 10   0.5625  1.5644   164.2    10.2    22.2
...
2024 06 20    16 15 09.4 -20 34 47   0.5460  1.5330   156.7    15.2    22.3
2024 06 21    16 14 07.4 -20 24 57   0.5438  1.5278   155.5    16.0    22.3
2024 06 22    16 13 07.3 -20 15 08   0.5418  1.5227   154.3    16.8    22.3
...
2024 06 28    16 07 52.8 -19 17 14   0.5326  1.4923   147.2    21.7    22.4
...
2024 07 06    16 03 26.5 -18 06 14   0.5273  1.4531   138.2    27.8    22.5
...
2024 07 21    16 04 57.7 -16 27 30   0.5321  1.3853   123.9    37.5    22.7

A. U. Tomatic                (C) Copyright 2024 MPC           M.P.E.C. 2024-M39





More information about the Iaude mailing list